Regional Weather Roundup
Issued by NWS

Home | Current Version | Previous Version | Graphics & Text | Print | Product List | Glossary Off
Versions: 1 2 3 4 5 6 7 8 9 10 11 12 13 14 15 16 17 18 19 20 21 22 23 24 25 26 27 28 29 30 31 32 33 34 35 36 37 38 39 40 41 42 43 44 45 46 47 48 49 50

000
ASUS43 KDMX 040207
RWRIA

WEATHER ROUNDUP FOR IOWA
NATIONAL WEATHER SERVICE DES MOINES IA
900 PM CDT THU SEP 03 2015

NOTE: "FAIR" INDICATES FEW OR NO CLOUDS BELOW 12,000 FEET WITH NO
SIGNIFICANT WEATHER AND/OR OBSTRUCTIONS TO VISIBILITY.

* - THESE STATIONS ARE NOT NWS STATIONS...THUS NOT UNDER NWS
QUALITY CONTROL.  THEY ALSO DO NOT REPORT WEATHER SUCH
AS PRECIPITATION OR FOG.

IAZ001>003-012>014-020>022-031>034-043>046-040300-
   NORTHWEST IOWA

CITY           SKY/WX    TMP DP  RH WIND       PRES   REMARKS
CARROLL *      CLEAR     75  73  94 S5        29.85R
CHEROKEE *     PTCLDY    79  75  89 SE5       29.83R HX  82
DENISON *      CLEAR     79  73  83 S12       29.82R HX  82
LE MARS *      CLEAR     79  75  89 SE7       29.81R HX  82
ORANGE CITY *  CLEAR     79  75  89 SE3       29.83R HX  82
SHELDON *      MOCLDY    75  73  94 SE3       29.82R
SIOUX CITY     PTCLDY    79  72  79 SE9       29.79R HX  82
SPENCER        HAZE      77  72  84 SE7       29.85R VSB 1/4
STORM LAKE *   CLEAR     77  75  94 S7        29.85R
$$

IAZ055>058-069>071-079>083-090>094-040300-
   SOUTHWEST IOWA

CITY           SKY/WX    TMP DP  RH WIND       PRES   REMARKS
ATLANTIC *     CLEAR     79  72  78 S7        29.86R HX  82
AUDUBON *      CLEAR     75  70  83 S3        29.87R
CLARINDA *     CLEAR     77  72  83 S3        29.88R
COUNCIL BLFS * CLEAR     79  72  78 SE10      29.84R HX  82
CRESTON *      CLEAR     75  70  83 S8        29.90R
LAMONI         CLEAR     79  69  71 S6        29.90R HX  81
RED OAK *      CLEAR     79  72  78 S3        29.85R HX  82
SHENANDOAH *   CLEAR     79  72  78 SE8       29.85R HX  82
$$

IAZ047>049-059>061-072>074-084-040300-
   CENTRAL IOWA

CITY           SKY/WX    TMP DP  RH WIND       PRES   REMARKS
AMES           CLEAR     75  72  90 SE6       29.87R
ANKENY *       MOCLDY    81  73  78 S3        29.87R HX  85
CHARITON *     CLEAR     77  70  78 S6        29.89R
DES MOINES     PTCLDY    83  71  67 SE8       29.87R HX  87
GRINNELL*      LGT RAIN  77  72  83 S7        29.90S
KNOXVILLE *    PTCLDY    79  70  73 SE5       29.88R HX  81
MARSHALLTOWN   PTCLDY    79  72  79 SE6       29.89R HX  82
PELLA *        CLEAR     77  75  94 SE5       29.90R
PERRY *          N/A     75  73  94 SE6       29.87R
$$

IAZ004>006-015-016-023>025-035-036-040300-
   NORTH CENTRAL IOWA

CITY           SKY/WX    TMP DP  RH WIND       PRES   REMARKS
ALGONA *       PTCLDY    79  73  83 SE9       29.86R HX  82
CLARION *      PTCLDY    79  73  83 SE10      29.88R HX  82
ESTHERVILLE    CLEAR     75  73  93 SE6       29.85R
FORT DODGE *   CLEAR     81  70  69 SE5       29.87R HX  84
MASON CITY     MOCLDY    77  74  90 SE7       29.90R
FOREST CITY *  PTCLDY    77  72  83 SE7       29.88R
IOWA FALLS *     N/A     77  73  88 SE5       29.90R
$$

IAZ007>011-017>019-026>030-037>042-050>054-066-040300-
   NORTHEAST IOWA

CITY           SKY/WX    TMP DP  RH WIND       PRES   REMARKS
CEDAR RAPIDS   MOCLDY    76  75  97 S3        29.90R
CHARLES CITY * PTCLDY    79  77  94 S7        29.90R HX  83
CLINTON *      CLEAR     79  72  78 CALM      29.94R HX  82
DECORAH *      CLEAR     79  75  89 SE5       29.91R HX  82
DUBUQUE        PTCLDY    77  73  87 SW3       29.93R
MONTICELLO *   CLEAR     73  72  94 CALM      29.91R
OELWEIN *      CLEAR     77  75  94 SE5       29.92R
WATERLOO       PTCLDY    80  73  79 S5        29.88R HX  84
$$

IAZ064-065-067-068-078-040300-
   EAST CENTRAL IOWA

CITY           SKY/WX    TMP DP  RH WIND       PRES   REMARKS
DAVENPORT      PTCLDY    75  72  90 SE3       29.92R
IOWA CITY      PTCLDY    80  73  79 CALM      29.91R HX  84
MT. PLEASANT * CLEAR     77  68  73 CALM      29.91R
MUSCATINE *    CLEAR     77  73  88 CALM      29.91R
QUAD CITIES    CLEAR     78  72  81 CALM      29.91R HX  80
$$

IAZ062-063-075>077-085>089-095>099-040300-
   SOUTHEAST IOWA

CITY           SKY/WX    TMP DP  RH WIND       PRES   REMARKS
BURLINGTON     CLEAR     78  71  79 CALM      29.91R HX  80
FAIRFIELD *    CLEAR     75  68  78 CALM      29.91R
FORT MADISON * CLEAR     77  72  83 CALM      29.92R
KEOKUK *       CLEAR     81  72  74 CALM      29.90R HX  84
OSKALOOSA *      N/A     72  70  94 S3        29.91R
CENTERVILLE *  CLEAR     73  70  88 S6        29.93R
OTTUMWA        CLEAR     74  70  87 S5        29.89R
WASHINGTON *     N/A    N/A N/A N/A MISG        N/A
$$

ABBREVIATIONS USED IN REMARKS
   TC - TEMPERATURES IN CELSIUS
  WCI - WIND CHILL INDEX
   HX - HEAT INDEX
  VSB - VISIBILITY
$$



USA.gov is the U.S. government's official web portal to all federal, state and local government web resources and services.